Location: Newark
(36.0797°N, 3.9744°E)
Time: 06:08:38
(UTC+00:00)

SR - All Passes

Search period start: 07 December 2019 00:00
Search period end: 17 December 2019 00:00
Orbit: 573 x 882 km, 66.7° (Epoch: 06 December)

Date Brightness Start Highest point End Pass type
(mag) Time Alt. Az. Time Alt. Az. Time Alt. Az.
07 Dec - 09:04:53 10° S 09:09:52 43° ESE 09:15:14 10° NE daylight
07 Dec - 10:47:34 10° WSW 10:52:09 27° NW 10:57:00 10° N daylight
07 Dec - 17:49:14 10° N 17:53:39 22° NE 17:57:54 10° E visible
07 Dec - 19:30:30 10° NW 19:36:13 59° WSW 19:41:33 10° S visible
08 Dec - 08:16:42 10° SSE 08:20:34 21° ESE 08:24:38 10° ENE daylight
08 Dec - 09:56:57 10° SW 10:02:10 50° WNW 10:07:48 10° NNE daylight
08 Dec - 17:01:07 10° NNE 17:03:21 12° NE 17:05:34 10° ENE visible
08 Dec - 18:40:44 10° NNW 18:46:37 70° ENE 18:52:03 10° SE visible
08 Dec - 20:25:01 10° WNW 20:27:56 14° WSW 20:30:45 10° SW visible
09 Dec - 09:07:06 10° SSW 09:12:27 83° ESE 09:18:15 10° NNE daylight
09 Dec - 10:52:00 10° W 10:55:21 16° NW 10:58:49 10° N daylight
09 Dec - 17:51:22 10° NNW 17:56:45 36° NE 18:01:49 10° ESE visible
09 Dec - 19:33:46 10° NW 19:38:43 30° WSW 19:43:22 10° SSW visible
10 Dec - 08:18:00 10° S 08:22:57 40° ESE 08:28:16 10° NE daylight
10 Dec - 10:00:29 10° WSW 10:05:10 28° NW 10:10:08 10° N daylight
10 Dec - 17:02:24 10° N 17:06:40 20° NE 17:10:46 10° E visible
10 Dec - 18:43:34 10° NW 18:49:18 63° WSW 18:54:38 10° SSE visible
11 Dec - 07:29:55 10° SSE 07:33:40 19° ESE 07:37:35 10° ENE daylight
11 Dec - 09:09:57 10° SW 09:15:14 53° WNW 09:20:55 10° NNE daylight
11 Dec - 16:14:31 10° NNE 16:16:22 11° NE 16:18:11 10° ENE daylight
11 Dec - 17:53:51 10° NNW 17:59:40 66° ENE 18:05:04 10° SE visible
11 Dec - 19:37:53 10° WNW 19:41:02 15° WSW 19:44:05 10° SW visible
12 Dec - 08:20:09 10° SSW 08:25:31 79° ESE 08:31:19 10° NNE daylight
12 Dec - 10:04:49 10° W 10:08:22 17° NW 10:12:03 10° N daylight
12 Dec - 17:04:30 10° N 17:09:47 34° NE 17:14:47 10° ESE visible
12 Dec - 18:46:46 10° NW 18:51:49 32° WSW 18:56:32 10° S visible
13 Dec - 07:31:08 10° S 07:36:03 38° ESE 07:41:18 10° NE daylight
13 Dec - 09:13:25 10° WSW 09:18:12 30° NW 09:23:17 10° N daylight
13 Dec - 16:15:35 10° N 16:19:42 19° NE 16:23:38 10° E daylight
13 Dec - 17:56:37 10° NNW 18:02:23 67° WSW 18:07:42 10° SSE visible
14 Dec - 06:43:10 10° SE 06:46:46 18° ESE 06:50:31 10° ENE daylight
14 Dec - 08:22:56 10° SW 08:28:16 56° WNW 08:34:01 10° NNE daylight
14 Dec - 15:28:00 10° NNE 15:29:21 11° NE 15:30:40 10° NE daylight
14 Dec - 17:06:57 10° NNW 17:12:43 62° ENE 17:18:05 10° SE visible
14 Dec - 18:50:46 10° WNW 18:54:08 16° WSW 18:57:23 10° SW visible
15 Dec - 07:33:12 10° SSW 07:38:36 74° ESE 07:44:23 10° NNE daylight
15 Dec - 09:17:38 10° W 09:21:23 18° NW 09:25:14 10° N daylight
15 Dec - 16:17:38 10° N 16:22:49 32° NE 16:27:43 10° ESE daylight
15 Dec - 17:59:47 10° NW 18:04:54 34° WSW 18:09:41 10° S visible
16 Dec - 06:44:15 10° S 06:49:07 36° ESE 06:54:19 10° NE daylight
16 Dec - 08:26:21 10° WSW 08:31:14 32° NW 08:36:25 10° N daylight
16 Dec - 15:28:47 10° N 15:32:42 18° NE 15:36:29 10° E daylight
16 Dec - 17:09:41 10° NNW 17:15:27 71° WSW 17:20:46 10° SSE visible
